#datint,netname,site,siteID,timestamp,airt_abovecanopy_avg,airt_avg,airt_belowcanopy_avg,dpt_f,rh,soil_vwc,soil_f,Solar_rad,winds_mph_avg,windd_deg,winds_mph_max,leafwetns,tot_10rain_mm,tot_60rain_mm,tot_dayrain_mm,leaft_1,budt_1
10min,FGNet,alpine,42.04,23JAN2021:00:00:00,37.9,37.6,37.2,33.3,83,18.9,30.3566,0,2.2,111.7,5.8,100,0.00,0.01,0.16,36.5414,37.3064
10min,FGNet,alpine,42.04,23JAN2021:00:10:00,38.3,38.2,38.0,33.0,81,18.91,30.362,0,3.9,90.3,7.3,100,0.00,0.00,0.00,36.6584,37.3838
10min,FGNet,alpine,42.04,23JAN2021:00:20:00,38.0,37.9,37.5,33.2,83,18.91,30.3746,0,2.4,202.5,4.9,100,0.00,0.00,0.00,36.1886,36.6602
10min,FGNet,alpine,42.04,23JAN2021:00:30:00,38.4,38.2,37.7,33.0,81,18.92,30.6176,0,3.5,71.01,7.8,100,0.00,0.00,0.00,37.229,38.8526
10min,FGNet,alpine,42.04,23JAN2021:00:40:00,39.2,38.9,38.2,32.8,78,18.93,30.38,0,1.4,91.4,2.8,100,0.00,0.00,0.00,36.6008,37.3478
10min,FGNet,alpine,42.04,23JAN2021:00:50:00,38.2,37.2,36.9,33.8,84,18.93,30.5006,0,2.0,74.63,4.2,100,0.00,0.00,0.00,36.1886,36.1688
10min,FGNet,alpine,42.04,23JAN2021:01:00:00,37.5,37.2,36.9,33.8,87,18.93,30.497,0,3.3,36.64,4.9,100,0.01,0.01,0.01,36.365,36.2084
10min,FGNet,alpine,42.04,23JAN2021:01:10:00,37.7,37.5,37.2,33.2,84,18.94,30.182,0,3.9,200.8,6.4,100,0.01,0.01,0.02,35.9924,35.9348
10min,FGNet,alpine,42.04,23JAN2021:01:20:00,37.0,36.7,36.4,33.1,86,18.94,30.3944,0,5.9,184.9,11.4,100,0.02,0.03,0.04,34.151,34.3076
10min,FGNet,alpine,42.04,23JAN2021:01:30:00,34.7,34.4,34.2,32.1,90,18.95,30.731,0,5.6,198.5,10.5,100,0.02,0.05,0.06,32.7218,33.0152
10min,FGNet,alpine,42.04,23JAN2021:01:40:00,33.6,33.6,33.4,31.5,92,18.95,30.8984,0,4.6,196.6,10.1,100,0.02,0.07,0.08,32.1332,32.3888
10min,FGNet,alpine,42.04,23JAN2021:01:50:00,33.1,33.2,33.1,31.2,93,18.96,30.659,0,3.8,100.8,8.0,100,0.02,0.09,0.10,32.1044,32.5256
10min,FGNet,alpine,42.04,23JAN2021:02:00:00,32.9,33.1,32.9,31.2,93,18.97,30.425,0,4.2,268.6,7.1,100,0.00,0.09,0.10,32.1926,32.2322
10min,FGNet,alpine,42.04,23JAN2021:02:10:00,32.9,33.1,32.9,31.2,94,18.97,30.614,0,2.9,227.3,5.3,100,0.01,0.01,0.11,32.036,31.9586
10min,FGNet,alpine,42.04,23JAN2021:02:20:00,32.8,32.9,32.7,31.1,93,18.97,30.461,0,2.2,158.8,3.0,100,0.01,0.02,0.12,32.036,31.9586
10min,FGNet,alpine,42.04,23JAN2021:02:30:00,32.6,32.6,32.4,31.0,94,18.97,30.7346,0,1.6,69.6,2.4,100,0.00,0.02,0.12,31.9964,31.9388
10min,FGNet,alpine,42.04,23JAN2021:02:40:00,32.4,32.5,32.3,30.9,94,18.98,30.569,0,0.9,47.46,2.6,100,0.00,0.02,0.12,32.036,31.9388
10min,FGNet,alpine,42.04,23JAN2021:02:50:00,32.6,32.6,32.4,31.1,94,18.98,30.677,0,1.6,66.62,3.1,100,0.00,0.02,0.12,32.0558,31.9766
10min,FGNet,alpine,42.04,23JAN2021:03:00:00,32.6,32.6,32.5,31.2,94,18.98,30.686,0,2.1,71.18,4.2,100,0.00,0.02,0.12,32.0756,32.036
10min,FGNet,alpine,42.04,23JAN2021:03:10:00,32.6,32.7,32.6,31.2,95,18.99,30.515,0,2.1,78.52,4.2,100,0.00,0.00,0.12,32.036,32.027
10min,FGNet,alpine,42.04,23JAN2021:03:20:00,32.8,32.8,32.7,31.4,95,18.99,30.668,0,1.6,275.1,2.8,100,0.01,0.01,0.13,32.0558,32.036
10min,FGNet,alpine,42.04,23JAN2021:03:30:00,32.9,32.9,32.7,31.5,95,19.01,30.623,0,0.6,234.8,2.3,100,0.00,0.01,0.13,32.0162,31.9766
10min,FGNet,alpine,42.04,23JAN2021:03:40:00,32.9,32.8,32.6,31.4,94,19.02,30.416,0,0.8,163.6,2.4,100,0.01,0.02,0.14,32.0558,32.045
10min,FGNet,alpine,42.04,23JAN2021:03:50:00,32.9,32.7,32.6,31.4,94,19.03,30.6374,0,0.8,198.7,2.1,100,0.00,0.02,0.14,32.0162,31.9964
10min,FGNet,alpine,42.04,23JAN2021:04:00:00,32.8,32.7,32.5,31.4,94,19.03,30.587,0,0.3,173,1.7,100,0.01,0.03,0.15,32.0162,31.9964
10min,FGNet,alpine,42.04,23JAN2021:04:10:00,32.8,32.7,32.5,31.4,95,19.04,30.5294,0,0.5,92,1.9,100,0.00,0.00,0.15,32.027,31.8992
10min,FGNet,alpine,42.04,23JAN2021:04:20:00,32.7,32.7,32.6,31.4,95,19.04,30.9596,0,1.4,74.27,3.3,100,0.00,0.00,0.15,32.036,32.0162
10min,FGNet,alpine,42.04,23JAN2021:04:30:00,32.7,32.7,32.6,31.4,95,19.04,30.5726,0,0.0,42.51,1.2,100,0.01,0.01,0.16,32.0162,31.9388
10min,FGNet,alpine,42.04,23JAN2021:04:40:00,32.7,32.7,32.5,31.4,95,19.04,30.7454,0,0.0,14.16,0.0,100,0.00,0.01,0.16,32.0072,32.0162
10min,FGNet,alpine,42.04,23JAN2021:04:50:00,32.9,32.8,32.6,31.5,95,19.05,30.902,0,0.0,19.92,0.0,100,0.00,0.01,0.16,31.9964,32.0558
10min,FGNet,alpine,42.04,23JAN2021:05:00:00,32.8,32.7,32.6,31.4,95,19.05,30.9614,0,0.0,114.6,0.0,100,0.01,0.02,0.17,32.036,32.0648
10min,FGNet,alpine,42.04,23JAN2021:05:10:00,32.8,32.8,32.5,31.4,95,19.06,30.794,0,0.0,129.2,0.0,100,0.00,0.00,0.17,32.0072,32.0648
10min,FGNet,alpine,42.04,23JAN2021:05:20:00,32.8,32.6,32.4,31.4,95,19.06,30.4484,0,0.0,103.7,0.0,100,0.00,0.00,0.17,31.9874,31.8308
10min,FGNet,alpine,42.04,23JAN2021:05:30:00,32.7,32.5,32.4,31.3,95,19.07,31.1144,0,0.5,156.3,2.6,100,0.00,0.00,0.17,32.027,31.82
10min,FGNet,alpine,42.04,23JAN2021:05:40:00,32.4,32.4,32.3,31.1,95,19.08,30.7094,0,1.0,196.2,3.0,100,0.00,0.00,0.17,31.9766,31.5176
10min,FGNet,alpine,42.04,23JAN2021:05:50:00,32.2,32.3,32.1,30.9,95,19.08,30.8624,0,1.1,274.9,3.5,100,0.00,0.00,0.17,31.9766,31.478
10min,FGNet,alpine,42.04,23JAN2021:06:00:00,32.1,32.2,32.1,30.9,95,19.09,30.74,0,1.6,222.2,5.7,100,0.00,0.00,0.17,32.036,31.487
10min,FGNet,alpine,42.04,23JAN2021:06:10:00,32.1,32.4,32.3,31.0,96,19.09,30.803,0,4.9,161.1,9.4,100,0.00,0.00,0.17,32.027,30.5564
10min,FGNet,alpine,42.04,23JAN2021:06:20:00,32.1,32.4,32.3,31.0,96,19.09,30.8156,0,2.3,168.2,7.8,100,0.00,0.00,0.17,32.0162,30.5276
10min,FGNet,alpine,42.04,23JAN2021:06:30:00,32.2,32.3,32.2,31.1,96,19.09,30.6716,0,2.4,207.3,3.5,100,0.00,0.00,0.17,32.0072,30.5186
10min,FGNet,alpine,42.04,23JAN2021:06:40:00,32.2,32.3,32.3,31.2,96,19.09,30.9146,0,3.0,189.7,6.2,100,0.00,0.00,0.17,31.9964,30.5474
10min,FGNet,alpine,42.04,23JAN2021:06:50:00,32.2,32.4,32.3,31.2,96,19.1,30.65,0,1.3,150,3.3,100,0.00,0.00,0.17,31.9964,30.5276
10min,FGNet,alpine,42.04,23JAN2021:07:00:00,32.2,32.4,32.4,31.2,96,19.1,30.5906,0,3.0,125.9,7.4,100,0.00,0.00,0.17,32.036,30.5384
10min,FGNet,alpine,42.04,23JAN2021:07:10:00,32.2,32.4,32.7,31.1,96,19.11,30.875,0,4.9,140.8,9.8,100,0.00,0.00,0.17,32.036,30.5186
10min,FGNet,alpine,42.04,23JAN2021:07:20:00,32.2,32.5,32.7,31.0,95,19.12,30.7904,0,3.5,145.2,6.4,100,0.00,0.00,0.17,32.036,30.1748
10min,FGNet,alpine,42.04,23JAN2021:07:30:00,32.3,32.4,32.5,31.0,95,19.12,30.7454,0,1.9,109.8,4.4,100,0.00,0.00,0.17,32.036,30.254
10min,FGNet,alpine,42.04,23JAN2021:07:40:00,32.3,32.5,32.8,30.9,95,19.14,31.0136,0,5.6,144.4,11.2,100,0.00,0.00,0.17,32.0558,29.7338
10min,FGNet,alpine,42.04,23JAN2021:07:50:00,32.2,32.4,32.5,30.9,95,19.13,30.7616,1,4.7,167.3,7.3,100,0.00,0.00,0.17,32.0558,29.5772
10min,FGNet,alpine,42.04,23JAN2021:08:00:00,32.2,32.4,32.4,31.0,95,19.14,30.8804,2,2.8,165.8,6.2,100,0.00,0.00,0.17,32.0558,29.5664
10min,FGNet,alpine,42.04,23JAN2021:08:10:00,32.3,32.4,32.5,31.0,95,19.15,30.6914,3,2.6,156.8,8.2,100,0.00,0.00,0.17,32.2124,29.6654
10min,FGNet,alpine,42.04,23JAN2021:08:20:00,32.3,32.7,32.9,30.9,95,19.15,30.857,6,3.5,105.6,6.5,100,0.00,0.00,0.17,32.1728,29.8022
10min,FGNet,alpine,42.04,23JAN2021:08:30:00,32.4,32.9,33.0,30.7,93,19.15,30.8876,10,2.8,107.5,6.2,100,0.00,0.00,0.17,32.2718,29.9786
10min,FGNet,alpine,42.04,23JAN2021:08:40:00,32.6,33.3,33.2,30.4,91,19.15,30.641,13,1.4,167.3,3.5,100,0.00,0.00,0.17,32.3006,30.371
10min,FGNet,alpine,42.04,23JAN2021:08:50:00,32.8,33.2,32.9,30.2,90,19.15,30.4106,17,2.2,135.1,3.7,100,0.00,0.00,0.17,32.3294,30.8516
10min,FGNet,alpine,42.04,23JAN2021:09:00:00,32.9,33.7,33.5,30.0,89,19.16,30.7634,23,2.5,134.2,5.3,100,0.00,0.00,0.17,32.5256,32.7794
10min,FGNet,alpine,42.04,23JAN2021:09:10:00,33.5,34.5,34.0,29.0,83,19.17,30.65,31,3.1,140.9,6.7,100,0.00,0.00,0.17,32.5742,32.7308
10min,FGNet,alpine,42.04,23JAN2021:09:20:00,34.0,34.4,34.0,27.9,78,19.17,30.8444,34,4.5,152,7.8,100,0.00,0.00,0.17,32.6336,33.161
10min,FGNet,alpine,42.04,23JAN2021:09:30:00,34.0,34.3,33.9,27.4,77,19.17,30.4826,35,5.3,159.4,9.6,100,0.00,0.00,0.17,32.5256,32.603
10min,FGNet,alpine,42.04,23JAN2021:09:40:00,33.8,34.0,33.7,27.2,76,19.19,30.6446,37,4.5,164,8.9,100,0.00,0.00,0.17,32.6732,32.5544
10min,FGNet,alpine,42.04,23JAN2021:09:50:00,33.8,34.1,33.5,27.6,78,19.2,30.6176,40,0.8,248.4,4.0,100,0.00,0.00,0.17,33.3482,32.8874
10min,FGNet,alpine,42.04,23JAN2021:10:00:00,33.9,34.1,33.7,27.6,78,19.21,30.5906,39,3.5,167.7,10.7,100,0.00,0.00,0.17,33.5138,32.7308
10min,FGNet,alpine,42.04,23JAN2021:10:10:00,33.7,33.9,33.5,27.9,79,19.21,30.7526,36,3.4,243,6.0,100,0.00,0.00,0.17,33.8072,32.6336
10min,FGNet,alpine,42.04,23JAN2021:10:20:00,33.7,34.0,33.5,28.2,80,19.21,30.587,36,2.1,235.7,4.8,100,0.00,0.00,0.17,33.935,32.369
10min,FGNet,alpine,42.04,23JAN2021:10:30:00,33.5,33.7,33.3,28.2,81,19.22,30.9776,37,3.4,191.2,8.0,100,0.00,0.00,0.17,33.5732,32.5544
10min,FGNet,alpine,42.04,23JAN2021:10:40:00,32.9,32.9,32.7,28.4,83,19.23,30.587,31,6.2,172.1,11.2,100,0.00,0.00,0.17,32.2808,30.7148
10min,FGNet,alpine,42.04,23JAN2021:10:50:00,31.6,31.8,31.7,29.4,91,19.23,30.713,33,5.9,184.1,11.9,100,0.00,0.00,0.17,32.2808,30.9776
10min,FGNet,alpine,42.04,23JAN2021:11:00:00,31.4,31.6,31.7,29.6,93,19.25,30.5366,41,4.7,193.1,7.4,100,0.00,0.00,0.17,32.4374,31.3898
10min,FGNet,alpine,42.04,23JAN2021:11:10:00,31.5,31.8,31.9,29.7,93,19.24,30.524,45,4.2,188.4,7.3,100,0.00,0.00,0.17,34.1996,32.4284
10min,FGNet,alpine,42.04,23JAN2021:11:20:00,31.7,32.0,32.0,29.6,92,19.25,31.01,49,5.5,180.5,10.8,100,0.00,0.00,0.17,33.2492,31.37
10min,FGNet,alpine,42.04,23JAN2021:11:30:00,31.7,32.0,31.9,29.3,91,19.25,30.5834,47,6.2,183.4,11.4,100,0.00,0.00,0.17,32.6822,30.7148
10min,FGNet,alpine,42.04,23JAN2021:11:40:00,31.7,32.3,32.0,29.1,90,19.26,30.7634,47,6.3,166.5,9.6,100,0.00,0.00,0.17,33.1232,30.6446
10min,FGNet,alpine,42.04,23JAN2021:11:50:00,31.7,32.4,32.0,29.0,90,19.26,30.8264,45,6.2,176.6,9.9,100,0.00,0.00,0.17,33.4454,30.6752
10min,FGNet,alpine,42.04,23JAN2021:12:00:00,31.7,32.3,32.0,29.0,89,19.26,30.551,48,6.8,167.6,11.4,100,0.00,0.00,0.17,34.0034,30.8516
10min,FGNet,alpine,42.04,23JAN2021:12:10:00,31.8,32.5,32.1,28.8,88,19.27,30.9866,51,6.1,175.4,11.2,100,0.00,0.00,0.17,34.5722,31.0856
10min,FGNet,alpine,42.04,23JAN2021:12:20:00,31.7,32.3,32.0,29.0,90,19.27,30.695,61,5.6,177.2,8.9,100,0.00,0.00,0.17,35.258,31.3016
10min,FGNet,alpine,42.04,23JAN2021:12:30:00,31.6,32.1,31.9,29.1,90,19.28,30.6644,52,5.4,185.2,8.7,100,0.00,0.00,0.17,33.8666,30.4196
10min,FGNet,alpine,42.04,23JAN2021:12:40:00,31.5,32.0,31.9,29.3,92,19.28,31.028,50,5.0,174.5,8.5,100,0.00,0.00,0.17,34.4246,30.5672
10min,FGNet,alpine,42.04,23JAN2021:12:50:00,31.4,32.0,31.9,29.3,92,19.28,30.803,51,5.3,174.5,8.7,100,0.00,0.00,0.17,35.0222,30.8606
10min,FGNet,alpine,42.04,23JAN2021:13:00:00,31.6,32.1,32.1,29.5,92,19.28,31.037,59,4.3,179.4,9.8,100,0.00,0.00,0.17,34.592,30.6158
10min,FGNet,alpine,42.04,23JAN2021:13:10:00,31.6,32.1,32.1,29.4,92,19.29,30.695,56,5.8,182.1,11.9,100,0.00,0.00,0.17,35.159,30.5762
10min,FGNet,alpine,42.04,23JAN2021:13:20:00,31.7,32.2,32.1,29.5,92,19.29,30.9614,54,5.1,179.7,8.9,100,0.00,0.00,0.17,35.258,30.7634
10min,FGNet,alpine,42.04,23JAN2021:13:30:00,31.7,32.2,32.2,29.6,92,19.31,31.3556,52,4.9,169.2,8.0,100,0.00,0.00,0.17,34.6208,30.4592
10min,FGNet,alpine,42.04,23JAN2021:13:40:00,31.8,32.3,32.2,29.6,91,19.32,30.8966,51,5.4,170.7,8.3,100,0.00,0.00,0.17,34.5326,30.5762
10min,FGNet,alpine,42.04,23JAN2021:13:50:00,31.9,32.4,32.2,29.4,90,19.31,31.0316,46,5.4,177.6,11.4,100,0.00,0.00,0.17,33.6506,30.3422
10min,FGNet,alpine,42.04,23JAN2021:14:00:00,31.9,32.3,32.1,29.4,90,19.31,31.0334,43,5.5,173.9,8.7,100,0.00,0.00,0.17,33.9746,30.3512
10min,FGNet,alpine,42.04,23JAN2021:14:10:00,32.0,32.5,32.2,29.5,90,19.32,30.9434,45,3.6,176.4,6.9,100,0.00,0.00,0.17,35.1986,30.6158
10min,FGNet,alpine,42.04,23JAN2021:14:20:00,32.3,32.7,32.5,29.3,89,19.33,31.5266,47,4.3,170.4,7.1,100,0.00,0.00,0.17,36.3758,30.929
10min,FGNet,alpine,42.04,23JAN2021:14:30:00,32.5,33.1,32.7,29.1,87,19.33,30.9956,46,3.5,169.5,7.1,100,0.01,0.01,0.18,37.2794,31.4096
10min,FGNet,alpine,42.04,23JAN2021:14:40:00,32.8,33.3,32.9,29.0,86,19.33,31.316,43,4.1,177.4,8.0,100,0.01,0.02,0.19,35.8952,31.1648
10min,FGNet,alpine,42.04,23JAN2021:14:50:00,32.8,33.3,32.8,29.0,85,19.33,30.9434,42,4.6,171.8,8.5,100,0.01,0.03,0.20,35.1698,30.812
10min,FGNet,alpine,42.04,23JAN2021:15:00:00,32.9,33.1,32.9,29.0,86,19.34,31.3214,41,3.7,158.6,6.5,100,0.00,0.03,0.20,34.8458,30.8516
10min,FGNet,alpine,42.04,23JAN2021:15:10:00,33.0,33.4,33.0,29.1,85,19.34,31.0496,41,3.3,169.9,5.5,100,0.01,0.01,0.21,35.7278,31.2422
10min,FGNet,alpine,42.04,23JAN2021:15:20:00,33.1,33.6,33.2,28.8,84,19.34,30.8174,40,3.3,184.9,6.7,100,0.01,0.02,0.22,37.004,32.0558
10min,FGNet,alpine,42.04,23JAN2021:15:30:00,33.4,34.0,33.5,28.7,83,19.36,30.9146,39,3.7,171.6,6.2,100,0.01,0.03,0.23,36.257,31.7624
10min,FGNet,alpine,42.04,23JAN2021:15:40:00,33.4,33.8,33.5,28.5,82,19.35,30.9524,36,3.3,149.9,6.4,100,0.00,0.03,0.23,35.8844,31.4294
10min,FGNet,alpine,42.04,23JAN2021:15:50:00,33.5,34.0,33.6,28.4,81,19.35,30.938,36,3.8,176.7,7.8,100,0.01,0.04,0.24,36.5126,31.487
10min,FGNet,alpine,42.04,23JAN2021:16:00:00,33.7,34.3,33.7,28.3,80,19.36,30.8786,40,2.9,205.6,6.2,100,0.00,0.04,0.24,38.2424,32.2412
10min,FGNet,alpine,42.04,23JAN2021:16:10:00,33.9,34.4,34.0,28.2,79,19.37,31.199,34,3.0,219.4,7.1,100,0.00,0.00,0.24,36.3956,31.1738
10min,FGNet,alpine,42.04,23JAN2021:16:20:00,33.7,33.9,33.7,28.4,81,19.37,30.8156,23,2.8,276.5,6.0,100,0.00,0.00,0.24,35.6792,31.2818
10min,FGNet,alpine,42.04,23JAN2021:16:30:00,33.7,34.0,33.7,27.8,79,19.37,30.8246,21,3.5,241.6,6.2,100,0.00,0.00,0.24,34.8062,30.6266
10min,FGNet,alpine,42.04,23JAN2021:16:40:00,33.6,33.8,33.3,27.9,79,19.38,30.6644,19,3.5,220,7.4,100,0.00,0.00,0.24,34.9628,30.9092
10min,FGNet,alpine,42.04,23JAN2021:16:50:00,33.8,33.8,33.5,27.8,78,19.38,31.0496,11,0.6,155.5,4.6,100,0.00,0.00,0.24,33.818,30.362
10min,FGNet,alpine,42.04,23JAN2021:17:00:00,33.7,33.7,33.4,27.7,78,19.38,31.0694,6,0.8,144.3,5.1,100,0.00,0.00,0.24,32.6732,30.047
10min,FGNet,alpine,42.04,23JAN2021:17:10:00,33.5,33.3,33.0,28.3,81,19.39,30.7904,4,0.5,100,2.6,100,0.00,0.00,0.24,32.2214,29.939
10min,FGNet,alpine,42.04,23JAN2021:17:20:00,33.2,32.9,32.7,28.5,83,19.39,31.3286,2,1.4,114.1,3.7,100,0.00,0.00,0.24,31.9676,29.8706
10min,FGNet,alpine,42.04,23JAN2021:17:30:00,32.8,32.6,32.4,29.3,87,19.4,30.6194,1,1.0,162.2,2.8,100,0.00,0.00,0.24,31.8308,29.7932
10min,FGNet,alpine,42.04,23JAN2021:17:40:00,32.6,32.5,32.4,28.8,86,19.41,30.9614,0,2.7,249.3,4.8,100,0.00,0.00,0.24,31.8002,29.7932
10min,FGNet,alpine,42.04,23JAN2021:17:50:00,32.6,32.5,32.3,28.7,85,19.42,31.1054,0,3.1,189.8,6.0,100,0.00,0.00,0.24,31.6544,29.597
10min,FGNet,alpine,42.04,23JAN2021:18:00:00,32.2,32.2,32.1,29.1,88,19.43,31.3286,0,3.8,286.7,6.2,100,0.00,0.00,0.24,31.4978,29.4782
10min,FGNet,alpine,42.04,23JAN2021:18:10:00,32.0,32.2,32.1,29.0,89,19.42,30.992,0,3.9,250.9,7.1,100,0.00,0.00,0.24,31.4384,29.4008
10min,FGNet,alpine,42.04,23JAN2021:18:20:00,32.1,32.3,32.1,29.0,88,19.43,30.7184,0,3.2,154.6,5.3,100,0.00,0.00,0.24,31.5752,29.597
10min,FGNet,alpine,42.04,23JAN2021:18:30:00,32.3,32.3,32.2,28.8,87,19.43,30.6824,0,3.9,300.7,6.0,100,0.00,0.00,0.24,31.487,29.5574
10min,FGNet,alpine,42.04,23JAN2021:18:40:00,32.2,32.3,32.1,28.7,87,19.43,30.9614,0,3.3,238.2,7.3,100,0.00,0.00,0.24,31.3016,29.4782
10min,FGNet,alpine,42.04,23JAN2021:18:50:00,32.1,32.2,32.0,28.7,87,19.44,30.983,0,3.2,128.9,7.1,100,0.00,0.00,0.24,31.1846,29.3414
10min,FGNet,alpine,42.04,23JAN2021:19:00:00,32.0,32.1,32.0,28.8,88,19.44,31.1666,0,3.1,285.4,4.6,91.7,0.00,0.00,0.24,30.929,29.1542
10min,FGNet,alpine,42.04,23JAN2021:19:10:00,32.0,32.2,32.0,28.6,87,19.45,31.0226,0,3.4,155.3,5.7,0,0.00,0.00,0.24,31.2332,29.4008
10min,FGNet,alpine,42.04,23JAN2021:19:20:00,32.2,32.4,32.2,28.1,85,19.46,30.992,0,3.7,148.3,6.5,0,0.00,0.00,0.24,31.3412,29.6258
10min,FGNet,alpine,42.04,23JAN2021:19:30:00,32.3,32.3,32.2,28.2,85,19.45,30.9866,0,3.0,63.67,5.5,0,0.00,0.00,0.24,31.3304,29.5376
10min,FGNet,alpine,42.04,23JAN2021:19:40:00,32.4,32.4,32.1,28.0,84,19.46,31.0406,0,2.2,258.4,3.7,0,0.00,0.00,0.24,31.253,29.498
10min,FGNet,alpine,42.04,23JAN2021:19:50:00,32.5,32.5,32.2,27.8,83,19.47,30.974,0,3.1,310.9,5.3,0,0.00,0.00,0.24,31.1936,29.4296
10min,FGNet,alpine,42.04,23JAN2021:20:00:00,32.2,32.1,31.9,28.1,85,19.48,31.316,0,2.7,211.8,4.9,0,0.00,0.00,0.24,30.9488,29.1542
10min,FGNet,alpine,42.04,23JAN2021:20:10:00,31.8,31.8,31.6,28.5,87,19.49,31.2116,0,3.2,59.06,4.9,0,0.00,0.00,0.24,30.7832,28.9688
10min,FGNet,alpine,42.04,23JAN2021:20:20:00,31.6,31.6,31.5,28.6,89,19.49,31.1774,0,1.4,227.1,4.0,0,0.00,0.00,0.24,30.596,28.8302
10min,FGNet,alpine,42.04,23JAN2021:20:30:00,31.5,31.5,31.4,28.5,89,19.5,30.9236,0,3.1,110.5,4.8,0,0.00,0.00,0.24,30.5564,28.7618
10min,FGNet,alpine,42.04,23JAN2021:20:40:00,31.4,31.4,31.3,28.6,89,19.5,30.9344,0,2.2,102.9,3.7,0,0.00,0.00,0.24,30.479,28.8014
10min,FGNet,alpine,42.04,23JAN2021:20:50:00,31.5,31.6,31.4,28.4,88,19.51,30.92,0,2.5,305.6,5.5,0,0.00,0.00,0.24,30.812,29.174
10min,FGNet,alpine,42.04,23JAN2021:21:00:00,31.8,31.9,31.7,27.9,85,19.51,30.992,0,3.2,103.4,5.1,0,0.00,0.00,0.24,30.7238,29.1164
10min,FGNet,alpine,42.04,23JAN2021:21:10:00,32.0,32.1,31.8,27.7,84,19.51,31.226,0,2.7,44.59,4.6,0,0.00,0.00,0.24,30.812,29.2244
10min,FGNet,alpine,42.04,23JAN2021:21:20:00,32.0,32.0,31.7,27.6,84,19.51,31.1774,0,3.0,120.2,4.2,0,0.00,0.00,0.24,30.7922,29.3216
10min,FGNet,alpine,42.04,23JAN2021:21:30:00,32.3,32.1,31.7,26.9,80,19.52,31.0586,0,2.5,142,5.1,0,0.00,0.00,0.24,30.38,28.4972
10min,FGNet,alpine,42.04,23JAN2021:21:40:00,32.2,31.4,31.1,27.6,83,19.53,30.9416,0,0.5,78.25,2.4,0,0.00,0.00,0.24,30.2828,28.4864
10min,FGNet,alpine,42.04,23JAN2021:21:50:00,31.7,31.3,31.1,27.9,86,19.54,30.9056,0,1.3,114.5,2.6,0,0.00,0.00,0.24,30.0074,28.3586
10min,FGNet,alpine,42.04,23JAN2021:22:00:00,31.5,31.1,30.9,27.9,86,19.54,31.1234,0,1.1,140,2.8,0,0.00,0.00,0.24,30.3908,28.8608
10min,FGNet,alpine,42.04,23JAN2021:22:10:00,31.6,31.1,30.8,27.9,86,19.55,30.8534,0,2.0,52.23,3.3,0,0.00,0.00,0.24,30.0272,28.418
10min,FGNet,alpine,42.04,23JAN2021:22:20:00,31.3,30.9,30.6,28.2,88,19.55,30.947,0,1.2,269.8,2.8,0,0.00,0.00,0.24,30.0776,28.3694
10min,FGNet,alpine,42.04,23JAN2021:22:30:00,31.4,31.0,30.8,27.9,87,19.55,30.9884,0,2.0,108.5,4.0,0,0.00,0.00,0.24,30.155,28.4468
10min,FGNet,alpine,42.04,23JAN2021:22:40:00,31.4,31.1,30.9,27.9,87,19.56,31.1414,0,2.5,33.04,4.8,0,0.00,0.00,0.24,30.4988,28.9688
10min,FGNet,alpine,42.04,23JAN2021:22:50:00,31.6,31.4,31.1,27.5,85,19.56,31.37,0,2.4,45.71,3.5,0,0.00,0.00,0.24,30.4502,28.8518
10min,FGNet,alpine,42.04,23JAN2021:23:00:00,31.7,31.5,31.1,27.5,84,19.56,31.0424,0,2.4,48.58,3.9,0,0.00,0.00,0.24,30.1946,28.6052
10min,FGNet,alpine,42.04,23JAN2021:23:10:00,31.6,31.2,30.9,27.6,85,19.56,31.244,0,1.1,62.16,3.0,0,0.00,0.00,0.24,29.8328,27.9662
10min,FGNet,alpine,42.04,23JAN2021:23:20:00,31.3,30.9,30.6,28.0,87,19.57,30.821,0,0.1,199.1,1.4,0,0.00,0.00,0.24,29.597,27.887
10min,FGNet,alpine,42.04,23JAN2021:23:30:00,31.1,30.6,30.4,28.0,88,19.58,31.2674,0,0.3,136.5,1.5,0,0.00,0.00,0.24,29.2838,27.6818
10min,FGNet,alpine,42.04,23JAN2021:23:40:00,30.9,30.6,30.3,28.1,89,19.58,31.172,0,1.1,116.6,3.5,0,0.00,0.00,0.24,29.696,28.202
10min,FGNet,alpine,42.04,23JAN2021:23:50:00,30.9,30.5,30.3,28.1,89,19.59,31.0586,0,1.4,130.2,2.8,0,0.00,0.00,0.24,29.6168,27.8096
10min,FGNet,genola,42.05,23JAN2021:00:00:00,39.5,39.2,38.9,33.6,79,9.12,37.3334,0,5.7,149.3,7.8,30,0.00,0.00,0.10,37.0472,37.3244
10min,FGNet,genola,42.05,23JAN2021:00:10:00,38.0,37.8,37.6,33.8,85,9.16,37.256,0,4.9,177.5,6.9,100,0.00,0.00,0.00,36.4154,36.3164
10min,FGNet,genola,42.05,23JAN2021:00:20:00,37.3,37.4,37.3,33.9,87,9.22,37.0634,0,4.2,158.1,7.1,100,0.02,0.02,0.02,36.2966,36.158
10min,FGNet,genola,42.05,23JAN2021:00:30:00,37.4,37.3,37.3,33.6,86,9.17,36.8078,0,4.5,141,6.4,100,0.00,0.02,0.02,36.2984,36.0626
10min,FGNet,genola,42.05,23JAN2021:00:40:00,37.3,37.1,37.0,33.5,86,9.21,36.7736,0,5.9,127.5,10.8,100,0.01,0.03,0.03,35.7116,35.4362
10min,FGNet,genola,42.05,23JAN2021:00:50:00,36.2,36.1,36.1,32.8,87,9.18,36.7628,0,7.7,126.3,10.5,100,0.00,0.03,0.03,35.321,35.1338
10min,FGNet,genola,42.05,23JAN2021:01:00:00,35.9,35.9,35.9,32.8,88,9.15,36.671,0,8.7,137.2,12.8,100,0.01,0.04,0.04,35.204,34.9178
10min,FGNet,genola,42.05,23JAN2021:01:10:00,35.3,35.3,35.3,32.4,89,9.24,36.3794,0,9.9,122.1,13.5,100,0.00,0.00,0.04,34.457,34.3472
10min,FGNet,genola,42.05,23JAN2021:01:20:00,34.9,35.1,35.2,32.4,90,9.15,35.7512,0,11.2,111.5,15.7,100,0.00,0.00,0.04,34.8494,34.6928
10min,FGNet,genola,42.05,23JAN2021:01:30:00,35.7,36.1,36.1,32.7,89,9.15,35.708,0,10.9,109.4,14.2,100,0.00,0.00,0.04,35.6972,35.6378
10min,FGNet,genola,42.05,23JAN2021:01:40:00,37.0,37.0,36.9,32.7,84,9.18,35.627,0,9.0,117.1,11.7,90,0.00,0.00,0.04,36.3074,35.924
10min,FGNet,genola,42.05,23JAN2021:01:50:00,37.2,37.0,36.8,32.6,83,9.2,35.4614,0,6.2,120.7,9.2,0,0.00,0.00,0.04,36.2282,36.7016
10min,FGNet,genola,42.05,23JAN2021:02:00:00,37.4,37.3,37.0,32.5,82,9.18,34.5596,0,4.8,120.5,8.0,0,0.00,0.00,0.04,36.4064,37.2542
10min,FGNet,genola,42.05,23JAN2021:02:10:00,37.6,37.4,37.1,32.4,81,9.18,31.6778,0,3.8,132.8,4.9,0,0.00,0.00,0.04,36.4262,37.0562
10min,FGNet,genola,42.05,23JAN2021:02:20:00,37.4,37.1,36.9,32.4,82,9.16,37.4468,0,2.7,127.2,3.3,0,0.00,0.00,0.04,35.4794,36.3272
10min,FGNet,genola,42.05,23JAN2021:02:30:00,37.2,36.8,36.6,32.6,83,9.17,37.9022,0,3.5,123.3,6.7,0,0.00,0.00,0.04,36.2984,37.2146
10min,FGNet,genola,42.05,23JAN2021:02:40:00,37.8,37.7,37.5,32.5,81,9.24,37.9652,0,7.7,122.1,10.3,48.33,0.00,0.00,0.04,36.2282,37.0166
10min,FGNet,genola,42.05,23JAN2021:02:50:00,37.0,36.7,36.6,32.6,84,9.23,37.9724,0,8.8,122,11.0,100,0.01,0.01,0.05,35.4794,35.2832
10min,FGNet,genola,42.05,23JAN2021:03:00:00,36.3,36.3,36.2,32.5,86,9.22,37.976,0,9.1,115.6,11.0,100,0.00,0.01,0.05,35.3822,35.3624
10min,FGNet,genola,42.05,23JAN2021:03:10:00,36.1,36.2,36.1,32.6,87,9.23,37.976,0,10.5,114.9,12.8,100,0.00,0.00,0.05,35.3228,35.5586
10min,FGNet,genola,42.05,23JAN2021:03:20:00,36.1,36.2,36.1,32.6,87,9.21,37.9778,0,9.0,115,12.5,100,0.00,0.00,0.05,35.4794,35.3318
10min,FGNet,genola,42.05,23JAN2021:03:30:00,36.2,36.4,36.3,32.6,87,9.19,37.976,0,9.7,102.1,11.7,100,0.00,0.00,0.05,35.5586,35.3426
10min,FGNet,genola,42.05,23JAN2021:03:40:00,36.6,36.8,36.7,32.4,85,9.18,37.9778,0,9.0,93.8,12.1,100,0.00,0.00,0.05,35.6378,35.4794
10min,FGNet,genola,42.05,23JAN2021:03:50:00,36.8,36.7,36.6,32.6,85,9.19,37.976,0,6.3,116.6,8.0,100,0.01,0.01,0.06,35.5586,35.519
10min,FGNet,genola,42.05,23JAN2021:04:00:00,36.6,36.4,36.4,32.6,85,9.22,37.976,0,5.7,109.7,7.1,100,0.00,0.01,0.06,35.5388,35.519
10min,FGNet,genola,42.05,23JAN2021:04:10:00,36.7,36.6,36.6,32.5,85,9.04,37.877,0,4.5,90.2,5.8,100,0.00,0.00,0.06,35.5586,35.2832
10min,FGNet,genola,42.05,23JAN2021:04:20:00,36.9,36.6,36.7,32.4,84,9.23,37.9706,0,2.8,77.19,4.2,100,0.01,0.01,0.07,35.4902,35.2436
10min,FGNet,genola,42.05,23JAN2021:04:30:00,36.8,36.4,36.3,32.5,84,9.07,37.8536,0,1.5,80.8,3.5,100,0.00,0.01,0.07,35.2832,35.2436
10min,FGNet,genola,42.05,23JAN2021:04:40:00,35.7,35.3,35.1,32.5,88,9.16,37.9508,0,4.0,197,6.5,100,0.01,0.02,0.08,34.124,34.3202
10min,FGNet,genola,42.05,23JAN2021:04:50:00,34.6,34.5,34.3,32.2,91,9.25,37.94,0,6.8,165.1,15.7,100,0.01,0.03,0.09,32.0198,32.0972
10min,FGNet,genola,42.05,23JAN2021:05:00:00,32.5,32.5,32.4,30.4,92,9.21,37.9418,0,6.8,132.3,12.6,100,0.01,0.04,0.10,31.982,31.982
10min,FGNet,genola,42.05,23JAN2021:05:10:00,32.6,33.2,33.1,31.0,93,9.16,37.9436,0,8.3,127.1,10.5,100,0.00,0.00,0.10,32.0252,32.378
10min,FGNet,genola,42.05,23JAN2021:05:20:00,33.4,34.1,34.0,31.3,92,9.01,37.8392,0,8.2,143.9,11.6,100,0.01,0.01,0.11,32.108,33.1898
10min,FGNet,genola,42.05,23JAN2021:05:30:00,33.9,34.3,34.2,31.0,89,9.14,37.9364,0,8.1,138.6,12.3,100,0.01,0.02,0.12,32.1134,33.1754
10min,FGNet,genola,42.05,23JAN2021:05:40:00,34.2,34.6,34.4,30.7,87,9.19,37.9364,0,7.8,138.5,11.6,100,0.00,0.02,0.12,32.2052,33.2168
10min,FGNet,genola,42.05,23JAN2021:05:50:00,34.4,34.7,34.5,30.5,86,8.72,37.6322,0,7.4,153.2,12.6,100,0.00,0.02,0.12,32.3132,33.278